Weather History for EGFF - October, 2012

Change the Weather History Date:

Saturday, October 27, 2012

  Actual Average Record
Temperature  
Mean Temperature 42 °F -  
Max Temperature 50 °F 51 °F 62 °F (2005)
Min Temperature 33 °F 41 °F 33 °F (2012)
Degree Days  
Heating Degree Days 24    
Moisture  
Dew Point 29 °F    
Average Humidity 64    
Maximum Humidity 75    
Minimum Humidity 46    
Precipitation  
Precipitation 0.00 in 0.13 in - ()
Sea Level Pressure  
Sea Level Pressure 30.13 in    
Wind  
Wind Speed 12 mph ()    
Max Wind Speed 21 mph    
Max Gust Speed 29 mph    
Visibility 6.2 miles    
Events      
Averages and records for this station are not official NWS values.
T = Trace of Precipitation, MM = Missing Value Source: Averaged Metar Reports

Daily Weather History Graph

Daily Weather History Graph

Search for Another Location

Airport or City:

Trip Planner

Search our weather history database for the weather conditions in past years. The results will help you decide how hot, cold, wet, or windy it might be!

Date:

Astronomy

Oct. 27, 2012 Rise Set
Actual Time 7:58 AM BST 5:55 PM BST
Civil Twilight 7:23 AM BST 6:29 PM BST
Nautical Twilight 6:44 AM BST 7:08 PM BST
Astronomical Twilight 6:06 AM BST 7:47 PM BST
Moon 4:42 PM BST (10/27) 5:27 AM BST (10/27)
Length of Visible Light 11h 06m
Length of Day
9h 56m
Waxing Gibbous, 95% of the Moon is Illuminated
Oct 27
Waxing Gibbous
Oct 29
Full
Nov 7
Last Quarter
Nov 13
New
Nov 20
First Quarter

Hourly Weather History & Observations

Time (BST) Temp. Windchill Dew Point Humidity Pressure Visibility Wind Dir Wind Speed Gust Speed Precip Events Conditions
12:20 AM 39.2 °F 30.5 °F 26.6 °F 61% 29.98 in 6.2 mi North 16.1 mph - N/A   Unknown
12:50 AM 37.4 °F 28.9 °F 24.8 °F 60% 30.01 in - North 13.8 mph - N/A   Clear
1:20 AM 35.6 °F 26.6 °F 24.8 °F 65% 30.01 in 6.2 mi North 13.8 mph - N/A   Unknown
1:50 AM 35.6 °F 28.6 °F 24.8 °F 65% 30.01 in 6.2 mi North 9.2 mph - N/A   Unknown
2:20 AM 35.6 °F 26.6 °F 24.8 °F 65% 30.01 in - North 13.8 mph - N/A   Clear
2:50 AM 35.6 °F 26.2 °F 24.8 °F 65% 30.01 in 6.2 mi North 15.0 mph - N/A   Unknown
3:20 AM 35.6 °F 26.2 °F 24.8 °F 65% 30.01 in 6.2 mi North 15.0 mph - N/A   Unknown
3:50 AM 33.8 °F 24.8 °F 24.8 °F 70% 30.04 in 6.2 mi North 12.7 mph - N/A   Unknown
4:20 AM 33.8 °F 24.8 °F 26.6 °F 75% 30.04 in 6.2 mi North 12.7 mph - N/A   Unknown
4:50 AM 33.8 °F 24.8 °F 26.6 °F 75% 30.04 in 6.2 mi North 12.7 mph - N/A   Unknown
5:20 AM 35.6 °F 27.1 °F 26.6 °F 70% 30.04 in 6.2 mi North 12.7 mph - N/A   Unknown
5:50 AM 35.6 °F 27.1 °F 26.6 °F 70% 30.06 in 6.2 mi North 12.7 mph - N/A   Unknown
6:20 AM 33.8 °F 24.8 °F 26.6 °F 75% 30.06 in 6.2 mi North 12.7 mph - N/A   Unknown
6:50 AM 33.8 °F 24.8 °F 26.6 °F 75% 30.06 in - North 12.7 mph - N/A   Clear
7:20 AM 35.6 °F 26.2 °F 26.6 °F 70% 30.09 in 6.2 mi North 15.0 mph - N/A   Partly Cloudy
7:50 AM 35.6 °F 27.5 °F 26.6 °F 70% 30.09 in 6.2 mi North 11.5 mph - N/A   Partly Cloudy
8:20 AM 35.6 °F 27.1 °F 26.6 °F 70% 30.09 in 6.2 mi North 12.7 mph - N/A   Partly Cloudy
8:50 AM 35.6 °F 27.1 °F 28.4 °F 75% 30.12 in 6.2 mi North 12.7 mph - N/A   Partly Cloudy
9:20 AM 37.4 °F 28.9 °F 28.4 °F 70% 30.12 in 6.2 mi North 13.8 mph - N/A   Unknown
9:50 AM 39.2 °F 30.2 °F 28.4 °F 65% 30.12 in 6.2 mi North 17.3 mph - N/A   Partly Cloudy
10:20 AM 41.0 °F 32.2 °F 30.2 °F 65% 30.12 in 6.2 mi North 18.4 mph - N/A   Partly Cloudy
10:50 AM 42.8 °F 34.3 °F 30.2 °F 61% 30.15 in 6.2 mi North 19.6 mph - N/A   Partly Cloudy
11:20 AM 42.8 °F 34.5 °F 30.2 °F 61% 30.15 in 6.2 mi North 18.4 mph - N/A   Partly Cloudy
11:50 AM 44.6 °F 36.6 °F 30.2 °F 57% 30.15 in 6.2 mi North 19.6 mph - N/A   Partly Cloudy
12:20 PM 46.4 °F 39.2 °F 30.2 °F 53% 30.18 in 6.2 mi North 18.4 mph - N/A   Partly Cloudy
12:50 PM 46.4 °F 39.2 °F 30.2 °F 53% 30.18 in 6.2 mi North 18.4 mph - N/A   Partly Cloudy
1:20 PM 48.2 °F - 30.2 °F 50% 30.15 in 6.2 mi North 20.7 mph - N/A   Partly Cloudy
1:50 PM 48.2 °F - 30.2 °F 50% 30.15 in 6.2 mi North 15.0 mph - N/A   Partly Cloudy
2:20 PM 50.0 °F - 30.2 °F 47% 30.18 in 6.2 mi North 15.0 mph 28.8 mph N/A   Unknown
2:50 PM 48.2 °F - 28.4 °F 46% 30.18 in 6.2 mi North 18.4 mph - N/A   Partly Cloudy
3:20 PM 48.2 °F - 30.2 °F 50% 30.15 in 6.2 mi North 18.4 mph - N/A   Partly Cloudy
3:50 PM 48.2 °F - 30.2 °F 50% 30.15 in 6.2 mi North 19.6 mph - N/A   Partly Cloudy
4:20 PM 48.2 °F - 30.2 °F 50% 30.15 in 6.2 mi North 15.0 mph - N/A   Partly Cloudy
4:50 PM 46.4 °F 40.4 °F 30.2 °F 53% 30.18 in 6.2 mi North 13.8 mph - N/A   Unknown
5:20 PM 46.4 °F 40.7 °F 30.2 °F 53% 30.18 in 6.2 mi North 12.7 mph - N/A   Partly Cloudy
5:50 PM 44.6 °F 40.2 °F 30.2 °F 57% 30.18 in 6.2 mi North 8.1 mph - N/A   Partly Cloudy
6:20 PM 41.0 °F 37.1 °F 30.2 °F 65% 30.21 in 6.2 mi NNW 5.8 mph - N/A   Partly Cloudy
6:50 PM 41.0 °F 37.1 °F 32.0 °F 70% 30.21 in 6.2 mi West 5.8 mph - N/A   Partly Cloudy
7:20 PM 39.2 °F 32.5 °F 30.2 °F 70% 30.21 in 6.2 mi NW 10.4 mph - N/A   Partly Cloudy
7:50 PM 39.2 °F 32.5 °F 30.2 °F 70% 30.21 in 6.2 mi NNW 10.4 mph - N/A   Partly Cloudy
8:20 PM 39.2 °F 32.0 °F 30.2 °F 70% 30.21 in 6.2 mi NNW 11.5 mph - N/A   Partly Cloudy
8:50 PM 39.2 °F 33.6 °F 30.2 °F 70% 30.24 in - North 8.1 mph - N/A   Clear
9:20 PM 37.4 °F 32.1 °F 30.2 °F 75% 30.24 in - NW 6.9 mph - N/A   Clear
9:50 PM 39.2 °F 34.2 °F 30.2 °F 70% 30.24 in - NW 6.9 mph - N/A   Clear
10:20 PM 39.2 °F 33.0 °F 30.2 °F 70% 30.21 in - NNW 9.2 mph - N/A   Clear
10:50 PM 37.4 °F 31.4 °F 30.2 °F 75% 30.21 in - NW 8.1 mph - N/A   Clear
11:20 PM 37.4 °F 32.8 °F 30.2 °F 75% 30.21 in - NNW 5.8 mph - N/A   Clear
11:50 PM 37.4 °F 34.9 °F 30.2 °F 75% 30.21 in - North 3.5 mph - N/A   Clear